• Em Portugal
  • Lista de países
  • Para 7 dias
  • Temperatura da água
  • Mapas de satélite
  • Mapa do tempo
  • Widgets de tempo
  • user-avatar
    Iniciar Sessão

    Previsão horária em Krasnoarmeysk

    Hoje, 16 Outubro, Terça-feira

    Tempo Temperatura Precipitação Vento Pressão Humidade
    00:00 +15°C° 0 mm 2 m/s 753 mmHg 65%
    01:00 +15°C° 0 mm 2 m/s 753 mmHg 67%
    02:00 +15°C° 0 mm 1 m/s 753 mmHg 69%
    03:00 +15°C° 0 mm 2 m/s 753 mmHg 71%
    04:00 +14°C° 0 mm 2 m/s 753 mmHg 73%
    05:00 +14°C° 0 mm 2 m/s 753 mmHg 74%
    06:00 +15°C° 0 mm 2 m/s 753 mmHg 71%
    07:00 +16°C° 0 mm 2 m/s 753 mmHg 67%
    08:00 +17°C° 0 mm 2 m/s 753 mmHg 63%
    09:00 +19°C° 0 mm 3 m/s 753 mmHg 57%
    10:00 +21°C° 0 mm 3 m/s 753 mmHg 50%
    11:00 +24°C° 0 mm 3 m/s 753 mmHg 43%
    12:00 +24°C° 0 mm 3 m/s 753 mmHg 40%
    13:00 +25°C° 0 mm 3 m/s 753 mmHg 37%
    14:00 +26°C° 0 mm 3 m/s 752 mmHg 34%
    15:00 +24°C° 0 mm 3 m/s 752 mmHg 37%
    16:00 +21°C° 0 mm 3 m/s 752 mmHg 41%
    17:00 +20°C° 0 mm 2 m/s 752 mmHg 45%
    18:00 +19°C° 0 mm 2 m/s 752 mmHg 47%
    19:00 +18°C° 0 mm 2 m/s 752 mmHg 50%
    20:00 +17°C° 0 mm 2 m/s 752 mmHg 53%
    21:00 +17°C° 0 mm 2 m/s 752 mmHg 55%
    22:00 +16°C° 0 mm 2 m/s 752 mmHg 57%
    23:00 +16°C° 0 mm 2 m/s 752 mmHg 60%

    Amanhã, 17 Outubro, Quarta-feira

    Tempo Temperatura Precipitação Vento Pressão Humidade
    00:00 +16°C° 0 mm 2 m/s 752 mmHg 62%
    01:00 +15°C° 0 mm 2 m/s 752 mmHg 64%
    02:00 +15°C° 0 mm 2 m/s 752 mmHg 66%
    03:00 +14°C° 0 mm 2 m/s 752 mmHg 68%
    04:00 +14°C° 0 mm 2 m/s 751 mmHg 69%
    05:00 +14°C° 0 mm 2 m/s 751 mmHg 71%
    06:00 +15°C° 0 mm 2 m/s 751 mmHg 67%
    07:00 +16°C° 0 mm 2 m/s 752 mmHg 63%
    08:00 +17°C° 0 mm 2 m/s 752 mmHg 58%
    09:00 +19°C° 0 mm 3 m/s 752 mmHg 52%
    10:00 +21°C° 0 mm 3 m/s 752 mmHg 45%
    11:00 +22°C° 0 mm 3 m/s 752 mmHg 39%
    12:00 +24°C° 0 mm 3 m/s 751 mmHg 37%
    13:00 +24°C° 0 mm 3 m/s 751 mmHg 35%
    14:00 +25°C° 0 mm 3 m/s 751 mmHg 33%
    15:00 +22°C° 0 mm 3 m/s 751 mmHg 36%
    16:00 +21°C° 0 mm 3 m/s 750 mmHg 40%
    17:00 +19°C° 0 mm 2 m/s 750 mmHg 43%
    18:00 +19°C° 0 mm 2 m/s 750 mmHg 46%
    19:00 +18°C° 0 mm 2 m/s 750 mmHg 48%
    20:00 +17°C° 0 mm 2 m/s 750 mmHg 51%
    21:00 +17°C° 0 mm 2 m/s 750 mmHg 52%
    22:00 +16°C° 0 mm 2 m/s 750 mmHg 53%
    23:00 +16°C° 0 mm 2 m/s 750 mmHg 55%

    Depois de amanhã, 18 Outubro, Quinta-feira

    Tempo Temperatura Precipitação Vento Pressão Humidade
    00:00 +15°C° 0 mm 2 m/s 750 mmHg 56%
    01:00 +15°C° 0 mm 2 m/s 750 mmHg 57%
    02:00 +14°C° 0 mm 2 m/s 750 mmHg 58%
    03:00 +14°C° 0 mm 2 m/s 750 mmHg 58%
    04:00 +14°C° 0 mm 2 m/s 750 mmHg 59%
    05:00 +13°C° 0 mm 2 m/s 750 mmHg 60%
    06:00 +14°C° 0 mm 3 m/s 750 mmHg 56%
    07:00 +16°C° 0 mm 3 m/s 750 mmHg 53%
    08:00 +17°C° 0 mm 3 m/s 750 mmHg 49%
    09:00 +18°C° 0 mm 4 m/s 750 mmHg 44%
    10:00 +20°C° 0 mm 4 m/s 750 mmHg 39%
    11:00 +22°C° 0 mm 4 m/s 750 mmHg 33%
    12:00 +23°C° 0 mm 4 m/s 749 mmHg 32%
    13:00 +23°C° 0 mm 4 m/s 749 mmHg 31%
    14:00 +25°C° 0 mm 4 m/s 749 mmHg 30%
    15:00 +22°C° 0 mm 4 m/s 749 mmHg 33%
    16:00 +21°C° 0 mm 4 m/s 748 mmHg 37%
    17:00 +19°C° 0 mm 3 m/s 748 mmHg 40%
    18:00 +18°C° 0 mm 3 m/s 748 mmHg 42%
    19:00 +18°C° 0 mm 3 m/s 748 mmHg 44%
    20:00 +17°C° 0 mm 3 m/s 748 mmHg 45%
    21:00 +16°C° 0 mm 3 m/s 748 mmHg 47%
    22:00 +16°C° 0 mm 3 m/s 748 mmHg 48%
    23:00 +14°C° 0 mm 3 m/s 748 mmHg 49%

    19 Outubro, Sexta-feira

    Tempo Temperatura Precipitação Vento Pressão Humidade
    00:00 +14°C° 0 mm 3 m/s 748 mmHg 50%
    01:00 +13°C° 0 mm 3 m/s 748 mmHg 52%
    02:00 +12°C° 0 mm 3 m/s 748 mmHg 53%
    03:00 +12°C° 0 mm 3 m/s 748 mmHg 54%
    04:00 +12°C° 0 mm 3 m/s 748 mmHg 56%
    05:00 +11°C° 0 mm 3 m/s 747 mmHg 57%
    06:00 +12°C° 0 mm 3 m/s 747 mmHg 55%
    07:00 +13°C° 0 mm 4 m/s 747 mmHg 52%
    08:00 +14°C° 0 mm 4 m/s 747 mmHg 50%
    09:00 +17°C° 0 mm 4 m/s 747 mmHg 46%
    10:00 +19°C° 0 mm 5 m/s 747 mmHg 42%
    11:00 +21°C° 0 mm 5 m/s 747 mmHg 37%
    12:00 +21°C° 0 mm 5 m/s 747 mmHg 36%
    13:00 +22°C° 0 mm 5 m/s 746 mmHg 35%
    14:00 +22°C° 0 mm 5 m/s 746 mmHg 33%
    15:00 +21°C° 0 mm 4 m/s 745 mmHg 37%
    16:00 +19°C° 0 mm 3 m/s 745 mmHg 41%
    17:00 +18°C° 0 mm 3 m/s 745 mmHg 45%
    18:00 +17°C° 0 mm 3 m/s 745 mmHg 48%
    19:00 +16°C° 0 mm 3 m/s 745 mmHg 50%
    20:00 +16°C° 0 mm 3 m/s 745 mmHg 53%
    21:00 +14°C° 0 mm 3 m/s 744 mmHg 56%
    22:00 +14°C° 0 mm 3 m/s 744 mmHg 59%
    23:00 +13°C° 0 mm 3 m/s 744 mmHg 62%

    20 Outubro, Sábado

    Tempo Temperatura Precipitação Vento Pressão Humidade
    00:00 +13°C° 0 mm 3 m/s 744 mmHg 65%
    01:00 +13°C° 0 mm 3 m/s 744 mmHg 68%
    02:00 +12°C° 0 mm 3 m/s 743 mmHg 71%
    03:00 +13°C° 0 mm 2 m/s 743 mmHg 74%
    04:00 +13°C° 0 mm 2 m/s 743 mmHg 77%
    05:00 +12°C° 0 mm 2 m/s 743 mmHg 80%
    06:00 +13°C° 0 mm 2 m/s 743 mmHg 78%
    07:00 +14°C° 0 mm 2 m/s 743 mmHg 76%
    08:00 +14°C° 0 mm 2 m/s 743 mmHg 74%
    09:00 +16°C° 0 mm 2 m/s 743 mmHg 68%
    10:00 +17°C° 0 mm 2 m/s 743 mmHg 62%
    11:00 +19°C° 0 mm 2 m/s 743 mmHg 56%
    12:00 +20°C° 0 mm 2 m/s 742 mmHg 52%
    13:00 +21°C° 0 mm 1 m/s 742 mmHg 49%
    14:00 +22°C° 0 mm 1 m/s 742 mmHg 45%
    15:00 +21°C° 0 mm 1 m/s 742 mmHg 49%
    16:00 +20°C° 0 mm 1 m/s 742 mmHg 53%
    17:00 +19°C° 0 mm 1 m/s 742 mmHg 56%
    18:00 +18°C° 0 mm 1 m/s 742 mmHg 59%
    19:00 +16°C° 0 mm 1 m/s 742 mmHg 63%
    20:00 +16°C° 0 mm 1 m/s 742 mmHg 66%
    21:00 +15°C° 0 mm 1 m/s 742 mmHg 68%
    22:00 +15°C° 0 mm 1 m/s 741 mmHg 70%
    23:00 +14°C° 0 mm 1 m/s 741 mmHg 73%

    21 Outubro, Domingo

    Tempo Temperatura Precipitação Vento Pressão Humidade
    00:00 +14°C° 0 mm 1 m/s 741 mmHg 74%
    01:00 +14°C° 0 mm 1 m/s 741 mmHg 75%
    02:00 +14°C° 0 mm 1 m/s 741 mmHg 77%
    03:00 +13°C° 0 mm 1 m/s 741 mmHg 79%
    04:00 +13°C° 0 mm 1 m/s 741 mmHg 81%
    05:00 +13°C° 0 mm 1 m/s 741 mmHg 83%
    06:00 +13°C° 0 mm 1 m/s 741 mmHg 79%
    07:00 +14°C° 0 mm 1 m/s 741 mmHg 76%
    08:00 +15°C° 0 mm 1 m/s 741 mmHg 73%
    09:00 +16°C° 0 mm 1 m/s 742 mmHg 66%
    10:00 +18°C° 0 mm 2 m/s 742 mmHg 60%
    11:00 +19°C° 0 mm 2 m/s 742 mmHg 54%
    12:00 +19°C° 0 mm 2 m/s 742 mmHg 51%
    13:00 +19°C° 0 mm 2 m/s 741 mmHg 49%
    14:00 +20°C° 0 mm 3 m/s 741 mmHg 47%
    15:00 +19°C° 0 mm 2 m/s 741 mmHg 50%
    16:00 +18°C° 0 mm 2 m/s 741 mmHg 53%
    17:00 +17°C° 0 mm 2 m/s 741 mmHg 56%
    18:00 +16°C° 0 mm 2 m/s 742 mmHg 60%
    19:00 +15°C° 0 mm 2 m/s 742 mmHg 63%
    20:00 +15°C° 0 mm 1 m/s 742 mmHg 66%
    21:00 +14°C° 0 mm 1 m/s 742 mmHg 69%
    22:00 +14°C° 0 mm 1 m/s 742 mmHg 73%
    23:00 +13°C° 0 mm 1 m/s 742 mmHg 76%
    Mostrar mais